Simultaneous Nadir Overpasses (SNOs) Predictions

Prediction of SNOs between LANDSAT-8 and NOAA-19 Satellite Orbit:

Table of predicted SNOs for the next 14.0 days since TLE Epoch: 5/2/2016
Index Date (LANDSAT-8) Time (LANDSAT-8) Lat,Lon (LANDSAT-8) SZA (LANDSAT-8 ) Date (NOAA-19) Time (NOAA-19) Lat,Lon (NOAA-19) SZA (NOAA-19 ) Distance(km) Time Diff (sec)
1 05/02/2016 06:13:14 74.96, 91.82 59.45 05/02/2016 06:12:05 75.00, 89.85 59.44 56.84 69
2 05/02/2016 07:02:50 -74.53,-101.62 121.03 05/02/2016 07:03:01 -74.55,-101.60 121.00 2.22 11
3 05/04/2016 11:47:08 -74.61,-172.51 121.58 05/04/2016 11:46:07 -74.63,-172.54 121.57 1.66 61
4 05/04/2016 12:36:35 74.54, -5.06 58.33 05/04/2016 12:37:02 74.56, -5.07 58.36 2.23 27
5 05/06/2016 17:20:53 74.61, -75.96 57.80 05/06/2016 17:20:07 74.59, -75.88 57.77 3.27 46
6 05/06/2016 18:10:22 -74.54, 91.51 122.29 05/06/2016 18:11:12 -74.56, 91.42 122.27 3.30 50
7 05/08/2016 22:54:40 -74.61, 20.59 122.81 05/08/2016 22:54:17 -74.60, 20.58 122.82 1.13 23
8 05/08/2016 23:44:07 74.53,-171.96 57.10 05/08/2016 23:45:12 74.53,-171.93 57.10 1.06 65
9 05/11/2016 04:28:25 74.59, 117.10 56.59 05/11/2016 04:28:18 74.61, 117.10 56.62 2.19 7
10 05/11/2016 05:18:04 -74.02, -76.62 124.03 05/11/2016 05:19:10 -73.98, -73.96 123.98 81.67 66
11 05/13/2016 09:12:40 74.81, 46.54 56.27 05/13/2016 09:11:28 74.89, 45.57 56.33 29.92 72
12 05/13/2016 10:02:12 -74.59,-146.35 123.97 05/13/2016 10:02:27 -74.61,-146.37 123.95 1.61 15
13 05/15/2016 14:46:30 -74.65, 1
